Durango, Mexico

5:51 PM CST on March 30, 2017 (GMT -0600)
Durango

Weather History for MMDO - September, 2013

Change the Weather History Date:

Sunday, September 15, 2013

  Actual Average Record
Temperature  
Mean Temperature 67 °F -  
Max Temperature 77 °F 78 °F 86 °F (1997)
Min Temperature 57 °F 50 °F 50 °F (1998)
Cooling Degree Days 2    
Growing Degree Days 17 (Base 50)    
Moisture  
Dew Point 58 °F    
Average Humidity 79    
Maximum Humidity 94    
Minimum Humidity 64    
Precipitation  
Precipitation 0.20 in - - ()
Sea Level Pressure  
Sea Level Pressure 29.93 in    
Wind  
Wind Speed 6 mph ()    
Max Wind Speed 12 mph    
Max Gust Speed -    
Visibility 12.4 miles    
Events Rain    
Averages and records for this station are not official NWS values.
T = Trace of Precipitation, MM = Missing Value Source: Averaged Metar Reports

Daily Weather History Graph

Daily Weather History Graph

Search for Another Location

Airport or City:

Trip Planner

Search our weather history database for the weather conditions in past years. The results will help you decide how hot, cold, wet, or windy it might be!

Date:

Astronomy

Sep. 15, 2013 Rise Set
Actual Time 7:44 AM CDT 8:01 PM CDT
Civil Twilight 7:21 AM CDT 8:24 PM CDT
Nautical Twilight 6:55 AM CDT 8:50 PM CDT
Astronomical Twilight 6:28 AM CDT 9:17 PM CDT
Moon 5:12 PM CDT (9/15) 3:47 AM CDT (9/15)
Length of Visible Light 13h 02m
Length of Day
12h 16m
Waxing Gibbous, 82% of the Moon is Illuminated
Sep 15
Waxing Gibbous
Sep 19
Full
Sep 26
Last Quarter
Oct 4
New
Oct 11
First Quarter

Hourly Weather History & Observations

Time (CDT) Temp. Dew Point Humidity Pressure Visibility Wind Dir Wind Speed Gust Speed Precip Events Conditions
5:50 AM 59.0 °F 57.2 °F 94% 30.08 in 8.0 mi North 4.6 mph - N/A   Mostly Cloudy
6:44 AM 57.2 °F 55.4 °F 94% 29.77 in 10.0 mi North 3.5 mph - N/A   Mostly Cloudy
7:42 AM 59.0 °F 57.2 °F 94% 30.11 in 12.0 mi North 5.8 mph - N/A   Overcast
8:47 AM 60.8 °F 57.2 °F 88% 30.13 in 14.0 mi North 4.6 mph - N/A   Overcast
9:45 AM 63 °F 59 °F 82% 29.83 in 25 mi NNE 2.2 mph - -   Overcast
9:50 AM 62.6 °F 57.2 °F 82% 29.79 in 14.0 mi North 6.9 mph - N/A   Overcast
10:43 AM 64.4 °F 57.2 °F 77% 30.15 in 14.0 mi NNE 6.9 mph - N/A   Overcast
11:46 AM 66.2 °F 57.2 °F 73% 30.16 in 14.0 mi NNE 9.2 mph - N/A   Overcast
12:42 PM 66.2 °F 55.4 °F 68% 29.76 in 12.0 mi North 10.4 mph - N/A   Overcast
12:52 PM 68 °F 58 °F 64% 29.79 in 31 mi ENE 4.5 mph - -   Overcast
1:40 PM 68.0 °F 55.4 °F 64% 30.13 in 12.0 mi North 10.4 mph - N/A   Overcast
2:40 PM 66.2 °F 57.2 °F 73% 30.11 in 10.0 mi North 8.1 mph - N/A   Overcast
3:32 PM 64.4 °F 60.8 °F 88% 30.09 in 10.0 mi NW 3.5 mph - N/A Rain Rain
3:41 PM 66.2 °F 59.0 °F 78% 29.73 in 10.0 mi North 8.1 mph - N/A   Overcast
3:55 PM 67 °F 60 °F 72% 29.73 in 31 mi ENE 4.5 mph - -   Partly Cloudy
4:40 PM 66.2 °F 59.0 °F 78% 30.08 in 12.0 mi NNE 11.5 mph - N/A   Overcast
5:40 PM 68.0 °F 59.0 °F 73% 30.07 in 14.0 mi North 10.4 mph - N/A   Overcast
6:41 PM 66.2 °F 59.0 °F 78% 29.72 in 14.0 mi North 10.4 mph - N/A   Overcast
6:59 PM 67 °F 61 °F 74% 29.70 in 19 mi NE 6.7 mph - -   Partly Cloudy
7:40 PM 64.4 °F 59.0 °F 83% 30.08 in 12.0 mi North 10.4 mph - N/A   Overcast
9:51 PM 62.6 °F 59.0 °F 88% 29.59 in 12.0 mi North 10.4 mph - N/A   Overcast